Location: Helsinki
(60.1699°N, 24.9384°E)
Time: 22:08:46
(UTC+02:00)

ISS - Visible Passes

Search period start: 24 March 2023 00:00
Search period end: 03 April 2023 01:00
Orbit: 414 x 422 km, 51.6° (Epoch: 24 March)

Date Brightness Start Highest point End Pass type
(mag) Time Alt. Az. Time Alt. Az. Time Alt. Az.
24 Mar -1.9 19:45:02 10° SW 19:47:30 19° S 19:49:49 11° SE visible
24 Mar -1.4 21:21:27 10° SW 21:22:45 14° SSW 21:22:45 14° SSW visible
25 Mar -1.8 20:33:32 10° SW 20:35:48 17° SSW 20:36:46 15° S visible
26 Mar -1.8 20:45:39 10° SW 20:48:04 19° S 20:50:29 10° SE visible
26 Mar -1.1 22:23:06 10° SW 22:23:41 11° SSW 22:23:41 11° SSW visible
27 Mar -1.4 21:34:33 10° SW 21:36:13 13° SSW 21:37:38 11° S visible
28 Mar -1.4 20:46:23 10° SW 20:48:26 15° SSW 20:50:30 10° SSE visible
30 Mar -1.1 20:47:40 10° SW 20:48:36 11° SSW 20:49:32 10° S visible
